User: anonymous   Login
Location: Unspecified
(0.0000°N, 0.0000°E)
Time: 02:08:38
(UTC+00:00)
Language:

STARLINK-4470 - Orbit

View from above orbital plane
View from above orbital plane
View from above satellite
View from above satellite

Ground track
Ground track

The orbit is defined by the following mean orbital elements,

1 53655U          26145.66668980 +.00000000 +00000-0 +19174-1 0 00007
2 53655  97.6015  28.8649 0001940  65.0314  43.2143 15.42997748    07
Epoch (UTC): 25 May 2026 16:00:01
Eccentricity: 0.0001940
inclination: 97.6015°
perigee height: 436 km
apogee height: 439 km
right ascension of ascending node: 28.8649°
argument of perigee: 65.0314°
revolutions per day: 15.42997748
mean anomaly at epoch: 43.2143°

The dashed part of the orbit path shows where the satellite is in the earth's shadow,  

DLR